073  
ASUS41 KBTV 042230  
RWRBTV  
VERMONT REGIONAL WEATHER ROUNDUP  
NATIONAL WEATHER SERVICE BURLINGTON VT  
500 PM EST SUN DEC 04 2022  
 
NOTE: "FAIR" INDICATES FEW OR NO CLOUDS BELOW 12,000 FEET WITH NO  
SIGNIFICANT WEATHER AND/OR S TO VISIBILITY
.  
 
* THESE REPORTS ARE NOT UNDER NWS QUALITY CONTROL AND/OR DO NOT  
REPORT WEATHER SUCH AS PRECIPITATION AND FOG.
 
 
VTZ001>019-042300-  
_____VERMONT_____  
 
 
CITY SKY/WX TMP DP RH WIND PRES REMARKS
 
BURLINGTON PTCLDY 31 18 58 S7 30.08F WCI 24  
MONTPELIER CLEAR 27 15 61 S5 30.10S WCI 22  
MORRISVILLE CLEAR 27 17 66 CALM 30.08S  
ST. JOHNSBURY* N/A 30 14 51 MISG 30.07S  
LYNDONVILLE* N/A 27 13 57 S3 30.07S  
MIDDLEBURY* CLOUDY 31 18 58 S5 30.10S WCI 26  
RUTLAND* PTCLDY 31 20 63 S3 30.11R  
SPRINGFIELD PTCLDY 32 18 56 CALM 30.13R  
HIGHGATE* FAIR 31 17 57 S8 30.06F WCI 24  
NEWPORT* FAIR 27 15 59 S3 30.06S  
BENNINGTON PTCLDY 30 16 56 SE5 30.13R WCI 25  
ISLAND POND* N/A 23 N/A N/A CALM N/A  
GALLUP MILLS* N/A 23 N/A N/A MISG N/A  
LAKE EDEN* N/A 25 N/A N/A SW1 N/A  
MT. MANSFIELD* N/A 16 N/A N/A S16 N/A WCI 0  
 
_____LAKE CHAMPLAIN_____  
 
 
CITY SKY/WX TMP DP RH WIND PRES REMARKS
 
BURTON ISLAND* N/A 34 25 69 SE17 N/A WCI 23  
COLCHESTER RF* N/A 36 25 64 S21 N/A WCI 24  
DIAMOND ISL* N/A 34 23 64 S10 N/A WCI 26  
 

 
 
NYZ007-026>031-035-052-083-087-042300-  
_____NORTHERN NEW YORK_____  
 
 
CITY SKY/WX TMP DP RH WIND PRES REMARKS
 
PLATTSBURGH PTCLDY 30 17 58 S7 30.07F WCI 23  
SARANAC LAKE CLOUDY 28 19 69 SW8 29.99S WCI 20  
MASSENA MOCLDY 33 23 66 SW10 30.03F WCI 25  
OGDENSBURG* FAIR 32 23 69 SW12 30.01R WCI 23  
POTSDAM* PTCLDY 32 23 69 S12G18 30.02F WCI 23  
WATERTOWN PTCLDY 34 21 59 S8G17 30.06F WCI 27  
FT DRUM CLOUDY 32 22 64 SW13 30.02F WCI 23  
ALBANY PTCLDY 34 20 56 SE3 30.15R  
GLENS FALLS CLEAR 33 21 61 SW6 30.12R WCI 28  
 

 
NHZ002-005-011-042300-  
_____NEW HAMPSHIRE_____  
 
 
CITY SKY/WX TMP DP RH WIND PRES REMARKS
 
LEBANON PTCLDY 31 20 63 S3 30.11R  
KEENE MOCLDY 32 22 66 S3 N/A  
MT WASHINGTON FOG 3 3 100 W37 N/A VSB 1/16WCI -24  
PLYMOUTH FAIR 29 19 67 CALM 30.14R  
WHITEFIELD PTCLDY 25 14 63 CALM 30.07R  
 

 
 
_____REGIONAL QUEBEC LOCATIONS_____  
 
 
CITY SKY/WX TMP DP RH WIND PRES REMARKS
 
MONTREAL PTCLDY 30 16 55 SE12 30.04F WCI 21  
QUEBEC CITY PTCLDY 23 16 74 CALM 30.07F  
SHERBROOKE CLEAR 23 14 68 SE2 30.04F  
 
_____REGIONAL ONTARIO LOCATIONS_____  
 
 
CITY SKY/WX TMP DP RH WIND PRES REMARKS
 
OTTAWA MOCLDY 30 21 69 S7 29.98S WCI 23  
 
______KEY______  
VSB - VISIBILITY IN MILES  
WCI - WIND CHILL INDEX  
HX - HEAT INDEX  

 
NNNN  
 
 
CLICK HERE TO GO TO PREVIOUS BULLETINS.

The Nexlab VT Page
The Nexlab NY Page Main Text Page